Time,TemperatureF,DewpointF,PressureIn,WindDirection,WindDirectionDegrees,WindSpeedMPH,WindSpeedGustMPH,Humidity,HourlyPrecipIn,Conditions,Clouds,dailyrainin,SolarRadiationWatts/m^2,SoftwareType,DateUTC
2013-05-12 00:00:00,59.4,52.9,29.76,WNW,286,0.0,0.0,79,0.00,,,0.00,0,Wunderground v.1.15,2013-05-12 04:00:00,
2013-05-12 00:10:00,58.8,53.3,29.77,WNW,286,0.0,0.0,82,0.00,,,0.00,0,Wunderground v.1.15,2013-05-12 04:10:00,
2013-05-12 00:20:00,59.2,53.4,29.77,WNW,286,0.0,0.0,81,0.00,,,0.00,0,Wunderground v.1.15,2013-05-12 04:20:00,
2013-05-12 00:30:00,59.4,53.2,29.77,WNW,286,0.0,0.0,80,0.00,,,0.00,0,Wunderground v.1.15,2013-05-12 04:30:00,
2013-05-12 00:40:00,59.8,53.6,29.77,WNW,286,0.0,0.0,80,0.00,,,0.00,0,Wunderground v.1.15,2013-05-12 04:40:00,
2013-05-12 00:50:00,60.1,53.2,29.77,WNW,286,0.0,0.0,78,0.00,,,0.00,0,Wunderground v.1.15,2013-05-12 04:50:00,
2013-05-12 01:00:00,60.9,52.9,29.76,West,267,1.0,1.0,75,0.00,,,0.00,0,Wunderground v.1.15,2013-05-12 05:00:00,
2013-05-12 01:10:00,60.9,52.9,29.76,West,261,0.0,0.0,75,0.00,,,0.00,0,Wunderground v.1.15,2013-05-12 05:10:00,
2013-05-12 01:20:00,60.9,52.2,29.76,WSW,252,1.0,1.0,73,0.00,,,0.00,0,Wunderground v.1.15,2013-05-12 05:20:00,
2013-05-12 01:30:00,61.1,51.6,29.76,WSW,254,0.0,0.0,71,0.00,,,0.00,0,Wunderground v.1.15,2013-05-12 05:30:00,
2013-05-12 01:40:00,61.1,51.2,29.75,West,267,1.0,1.0,70,0.00,,,0.00,0,Wunderground v.1.15,2013-05-12 05:40:00,
2013-05-12 01:50:00,61.0,50.8,29.75,WSW,252,1.0,1.0,69,0.00,,,0.00,0,Wunderground v.1.15,2013-05-12 05:50:00,
2013-05-12 02:00:00,60.9,50.7,29.75,WSW,256,2.0,5.0,69,0.00,,,0.00,0,Wunderground v.1.15,2013-05-12 06:00:00,
2013-05-12 02:10:00,60.6,50.4,29.75,WNW,288,2.0,2.0,69,0.00,,,0.00,0,Wunderground v.1.15,2013-05-12 06:10:00,
2013-05-12 02:20:00,60.4,50.6,29.75,West,269,2.0,3.0,70,0.00,,,0.01,0,Wunderground v.1.15,2013-05-12 06:20:00,
2013-05-12 02:30:00,60.1,50.3,29.75,West,264,2.0,2.0,70,0.00,,,0.01,0,Wunderground v.1.15,2013-05-12 06:30:00,
2013-05-12 02:40:00,59.7,49.9,29.76,West,276,2.0,2.0,70,0.00,,,0.01,0,Wunderground v.1.15,2013-05-12 06:40:00,
2013-05-12 02:50:00,59.4,49.6,29.75,WNW,283,2.0,2.0,70,0.00,,,0.01,0,Wunderground v.1.15,2013-05-12 06:50:00,
2013-05-12 03:00:00,59.2,49.8,29.75,West,266,2.0,2.0,71,0.00,,,0.01,0,Wunderground v.1.15,2013-05-12 07:00:00,
2013-05-12 03:10:00,59.0,49.2,29.75,NW,305,1.0,2.0,70,0.00,,,0.01,0,Wunderground v.1.15,2013-05-12 07:10:00,
2013-05-12 03:20:00,58.6,48.1,29.75,West,260,3.0,3.0,68,0.00,,,0.01,0,Wunderground v.1.15,2013-05-12 07:20:00,
2013-05-12 03:30:00,58.3,47.8,29.75,West,271,2.0,2.0,68,0.00,,,0.01,0,Wunderground v.1.15,2013-05-12 07:30:00,
2013-05-12 03:40:00,57.8,47.7,29.76,West,260,2.0,3.0,69,0.00,,,0.01,0,Wunderground v.1.15,2013-05-12 07:40:00,
2013-05-12 03:50:00,57.7,47.6,29.76,WSW,252,2.0,2.0,69,0.00,,,0.01,0,Wunderground v.1.15,2013-05-12 07:50:00,
2013-05-12 04:00:00,57.2,46.7,29.76,West,266,1.0,1.0,68,0.00,,,0.01,0,Wunderground v.1.15,2013-05-12 08:00:00,
2013-05-12 04:10:00,56.4,46.7,29.76,WSW,258,0.0,0.0,70,0.00,,,0.01,0,Wunderground v.1.15,2013-05-12 08:10:00,
2013-05-12 04:20:00,55.3,46.4,29.76,WSW,258,0.0,0.0,72,0.00,,,0.01,0,Wunderground v.1.15,2013-05-12 08:20:00,
2013-05-12 04:30:00,54.8,46.3,29.75,WSW,258,0.0,0.0,73,0.00,,,0.01,0,Wunderground v.1.15,2013-05-12 08:30:00,
2013-05-12 04:40:00,54.2,46.1,29.75,WSW,258,0.0,0.0,74,0.00,,,0.01,0,Wunderground v.1.15,2013-05-12 08:40:00,
2013-05-12 04:50:00,53.4,46.0,29.76,WSW,258,0.0,0.0,76,0.00,,,0.01,0,Wunderground v.1.15,2013-05-12 08:50:00,
2013-05-12 05:00:00,53.2,46.5,29.75,WSW,258,0.0,0.0,78,0.00,,,0.01,0,Wunderground v.1.15,2013-05-12 09:00:00,
2013-05-12 05:10:00,53.1,46.8,29.75,WSW,258,0.0,0.0,79,0.00,,,0.01,0,Wunderground v.1.15,2013-05-12 09:10:00,
2013-05-12 05:20:00,52.7,46.7,29.75,WSW,258,0.0,0.0,80,0.00,,,0.01,0,Wunderground v.1.15,2013-05-12 09:20:00,
2013-05-12 05:30:00,52.5,46.5,29.76,WSW,258,0.0,0.0,80,0.00,,,0.01,0,Wunderground v.1.15,2013-05-12 09:30:00,
2013-05-12 05:40:00,52.3,46.6,29.77,WSW,258,0.0,0.0,81,0.00,,,0.01,0,Wunderground v.1.15,2013-05-12 09:40:00,
2013-05-12 05:50:00,53.1,47.4,29.77,West,259,0.0,0.0,81,0.00,,,0.01,0,Wunderground v.1.15,2013-05-12 09:50:00,
2013-05-12 06:00:00,53.8,47.8,29.77,WSW,258,0.0,0.0,80,0.00,,,0.01,0,Wunderground v.1.15,2013-05-12 10:00:00,
2013-05-12 06:10:00,54.6,48.2,29.78,NNW,332,0.0,0.0,79,0.00,,,0.01,0,Wunderground v.1.15,2013-05-12 10:10:00,
2013-05-12 06:20:00,54.9,48.2,29.78,NW,307,0.0,2.0,78,0.00,,,0.01,0,Wunderground v.1.15,2013-05-12 10:20:00,
2013-05-12 06:30:00,55.6,47.4,29.78,West,267,2.0,2.0,74,0.00,,,0.01,9,Wunderground v.1.15,2013-05-12 10:30:00,
2013-05-12 06:40:00,55.9,47.4,29.78,WNW,282,2.0,3.0,73,0.00,,,0.01,39,Wunderground v.1.15,2013-05-12 10:40:00,
2013-05-12 06:50:00,55.4,43.0,29.79,NW,319,4.0,5.0,63,0.00,,,0.01,70,Wunderground v.1.15,2013-05-12 10:50:00,
2013-05-12 07:00:00,54.6,40.6,29.80,NNW,329,5.0,5.0,59,0.00,,,0.01,32,Wunderground v.1.15,2013-05-12 11:00:00,
2013-05-12 07:10:00,54.0,40.0,29.81,NW,326,4.0,4.0,59,0.00,,,0.01,40,Wunderground v.1.15,2013-05-12 11:10:00,
2013-05-12 07:20:00,53.5,39.5,29.81,NW,314,4.0,4.0,59,0.00,,,0.01,69,Wunderground v.1.15,2013-05-12 11:20:00,
2013-05-12 07:30:00,53.2,39.7,29.82,NW,316,4.0,4.0,60,0.00,,,0.01,65,Wunderground v.1.15,2013-05-12 11:30:00,
2013-05-12 07:40:00,53.1,39.6,29.82,North,355,5.0,5.0,60,0.00,,,0.01,107,Wunderground v.1.15,2013-05-12 11:40:00,
2013-05-12 07:50:00,53.0,39.5,29.82,West,273,4.0,4.0,60,0.00,,,0.01,74,Wunderground v.1.15,2013-05-12 11:50:00,
2013-05-12 08:00:00,53.3,40.2,29.82,West,277,2.0,2.0,61,0.00,,,0.01,309,Wunderground v.1.15,2013-05-12 12:00:00,
2013-05-12 08:10:00,54.5,41.7,29.82,WSW,257,3.0,4.0,62,0.00,,,0.01,325,Wunderground v.1.15,2013-05-12 12:10:00,
2013-05-12 08:20:00,54.7,40.6,29.83,WNW,286,5.0,5.0,59,0.00,,,0.01,369,Wunderground v.1.15,2013-05-12 12:20:00,
2013-05-12 08:30:00,55.0,40.9,29.82,West,267,4.0,10.0,59,0.00,,,0.01,408,Wunderground v.1.15,2013-05-12 12:30:00,
2013-05-12 08:40:00,55.3,41.6,29.83,West,267,5.0,5.0,60,0.00,,,0.01,438,Wunderground v.1.15,2013-05-12 12:40:00,
2013-05-12 08:50:00,56.0,42.3,29.83,NW,317,4.0,4.0,60,0.00,,,0.01,482,Wunderground v.1.15,2013-05-12 12:50:00,
2013-05-12 09:00:00,56.8,43.1,29.83,WSW,244,2.0,5.0,60,0.00,,,0.01,584,Wunderground v.1.15,2013-05-12 13:00:00,
2013-05-12 09:10:00,56.4,42.2,29.83,WSW,253,5.0,5.0,59,0.00,,,0.01,605,Wunderground v.1.15,2013-05-12 13:10:00,
2013-05-12 09:20:00,55.9,42.2,29.83,WSW,257,3.0,3.0,60,0.00,,,0.01,719,Wunderground v.1.15,2013-05-12 13:20:00,
2013-05-12 09:30:00,56.0,41.9,29.84,West,270,3.0,6.0,59,0.00,,,0.01,450,Wunderground v.1.15,2013-05-12 13:30:00,
2013-05-12 09:40:00,55.2,41.1,29.84,WNW,298,5.0,5.0,59,0.00,,,0.01,213,Wunderground v.1.15,2013-05-12 13:40:00,
2013-05-12 09:50:00,55.3,41.6,29.84,NW,317,3.0,3.0,60,0.00,,,0.01,798,Wunderground v.1.15,2013-05-12 13:50:00,
2013-05-12 10:00:00,55.3,39.9,29.85,West,263,3.0,6.0,56,0.00,,,0.01,258,Wunderground v.1.15,2013-05-12 14:00:00,
2013-05-12 10:10:00,54.6,37.8,29.85,NW,323,3.0,6.0,53,0.00,,,0.01,276,Wunderground v.1.15,2013-05-12 14:10:00,
2013-05-12 10:20:00,55.8,38.4,29.85,NW,315,3.0,3.0,52,0.00,,,0.01,777,Wunderground v.1.15,2013-05-12 14:20:00,
2013-05-12 10:30:00,56.8,38.3,29.85,West,269,1.0,1.0,50,0.00,,,0.01,854,Wunderground v.1.15,2013-05-12 14:30:00,
2013-05-12 10:40:00,56.7,36.7,29.86,NW,308,3.0,3.0,47,0.00,,,0.01,817,Wunderground v.1.15,2013-05-12 14:40:00,
2013-05-12 10:50:00,56.8,38.3,29.85,NW,319,3.0,4.0,50,0.00,,,0.01,877,Wunderground v.1.15,2013-05-12 14:50:00,
2013-05-12 11:00:00,56.8,36.2,29.85,NNW,340,4.0,4.0,46,0.00,,,0.01,879,Wunderground v.1.15,2013-05-12 15:00:00,
2013-05-12 11:10:00,57.3,36.1,29.85,WNW,294,4.0,4.0,45,0.00,,,0.01,891,Wunderground v.1.15,2013-05-12 15:10:00,
2013-05-12 11:20:00,57.4,36.2,29.85,WNW,298,5.0,5.0,45,0.00,,,0.01,907,Wunderground v.1.15,2013-05-12 15:20:00,
2013-05-12 11:30:00,57.8,37.1,29.85,WNW,291,3.0,3.0,46,0.00,,,0.01,902,Wunderground v.1.15,2013-05-12 15:30:00,
2013-05-12 11:40:00,58.0,33.8,29.85,NW,316,4.0,4.0,40,0.00,,,0.01,921,Wunderground v.1.15,2013-05-12 15:40:00,
2013-05-12 11:50:00,58.5,33.6,29.86,West,261,4.0,14.0,39,0.00,,,0.01,926,Wunderground v.1.15,2013-05-12 15:50:00,
2013-05-12 12:00:00,58.6,36.2,29.85,WSW,258,5.0,5.0,43,0.00,,,0.01,939,Wunderground v.1.15,2013-05-12 16:00:00,
2013-05-12 12:10:00,58.6,34.3,29.85,West,270,4.0,4.0,40,0.00,,,0.01,953,Wunderground v.1.15,2013-05-12 16:10:00,
2013-05-12 12:20:00,58.7,33.8,29.85,NW,314,3.0,3.0,39,0.00,,,0.01,979,Wunderground v.1.15,2013-05-12 16:20:00,
2013-05-12 12:30:00,59.8,34.1,29.85,NW,309,3.0,5.0,38,0.00,,,0.01,1013,Wunderground v.1.15,2013-05-12 16:30:00,
2013-05-12 12:40:00,59.8,34.1,29.85,WNW,284,5.0,5.0,38,0.00,,,0.01,861,Wunderground v.1.15,2013-05-12 16:40:00,
2013-05-12 12:50:00,59.6,32.6,29.85,West,264,5.0,5.0,36,0.00,,,0.01,1027,Wunderground v.1.15,2013-05-12 16:50:00,
2013-05-12 13:00:00,59.5,33.2,29.85,West,278,6.0,6.0,37,0.00,,,0.01,925,Wunderground v.1.15,2013-05-12 17:00:00,
2013-05-12 13:10:00,59.3,33.7,29.86,WNW,286,7.0,7.0,38,0.00,,,0.01,1102,Wunderground v.1.15,2013-05-12 17:10:00,
2013-05-12 13:20:00,59.0,32.1,29.86,West,264,6.0,6.0,36,0.00,,,0.01,944,Wunderground v.1.15,2013-05-12 17:20:00,
2013-05-12 13:30:00,59.3,35.0,29.86,NW,320,5.0,5.0,40,0.00,,,0.01,1039,Wunderground v.1.15,2013-05-12 17:30:00,
2013-05-12 13:40:00,59.5,35.1,29.86,WNW,282,5.0,5.0,40,0.00,,,0.01,1041,Wunderground v.1.15,2013-05-12 17:40:00,
2013-05-12 13:50:00,60.4,35.9,29.86,West,280,5.0,5.0,40,0.00,,,0.01,1035,Wunderground v.1.15,2013-05-12 17:50:00,
2013-05-12 14:00:00,60.0,36.2,29.86,WNW,298,5.0,5.0,41,0.00,,,0.01,1065,Wunderground v.1.15,2013-05-12 18:00:00,
2013-05-12 14:10:00,61.3,36.8,29.86,WSW,257,4.0,7.0,40,0.00,,,0.01,1056,Wunderground v.1.15,2013-05-12 18:10:00,
2013-05-12 14:20:00,60.4,34.0,29.86,WSW,255,4.0,4.0,37,0.00,,,0.01,1023,Wunderground v.1.15,2013-05-12 18:20:00,
2013-05-12 14:30:00,60.8,33.7,29.86,WSW,251,6.0,6.0,36,0.00,,,0.01,956,Wunderground v.1.15,2013-05-12 18:30:00,
2013-05-12 14:40:00,60.8,35.0,29.87,NW,311,6.0,6.0,38,0.00,,,0.01,974,Wunderground v.1.15,2013-05-12 18:40:00,
2013-05-12 14:50:00,61.6,37.7,29.87,West,279,6.0,6.0,41,0.00,,,0.01,1002,Wunderground v.1.15,2013-05-12 18:50:00,
2013-05-12 15:00:00,60.3,33.9,29.87,West,267,6.0,6.0,37,0.00,,,0.01,953,Wunderground v.1.15,2013-05-12 19:00:00,
2013-05-12 15:10:00,61.3,35.5,29.87,West,259,5.0,11.0,38,0.00,,,0.01,881,Wunderground v.1.15,2013-05-12 19:10:00,
2013-05-12 15:20:00,61.5,33.6,29.87,West,266,5.0,5.0,35,0.00,,,0.01,190,Wunderground v.1.15,2013-05-12 19:20:00,
2013-05-12 15:30:00,59.0,32.7,29.87,West,273,5.0,5.0,37,0.00,,,0.01,172,Wunderground v.1.15,2013-05-12 19:30:00,
2013-05-12 15:40:00,59.3,33.7,29.87,WNW,285,4.0,6.0,38,0.00,,,0.01,220,Wunderground v.1.15,2013-05-12 19:40:00,
2013-05-12 15:50:00,60.7,32.9,29.87,WNW,291,5.0,5.0,35,0.00,,,0.01,896,Wunderground v.1.15,2013-05-12 19:50:00,
2013-05-12 16:00:00,60.8,33.7,29.88,WSW,242,5.0,5.0,36,0.00,,,0.01,297,Wunderground v.1.15,2013-05-12 20:00:00,
2013-05-12 16:10:00,59.7,34.7,29.88,WNW,299,6.0,6.0,39,0.00,,,0.01,884,Wunderground v.1.15,2013-05-12 20:10:00,
2013-05-12 16:20:00,59.7,35.3,29.88,West,270,5.0,13.0,40,0.00,,,0.01,849,Wunderground v.1.15,2013-05-12 20:20:00,
2013-05-12 16:30:00,59.0,32.7,29.88,WSW,254,7.0,7.0,37,0.00,,,0.01,165,Wunderground v.1.15,2013-05-12 20:30:00,
2013-05-12 16:40:00,59.0,33.4,29.88,WSW,257,6.0,7.0,38,0.00,,,0.01,814,Wunderground v.1.15,2013-05-12 20:40:00,
2013-05-12 16:50:00,59.5,33.2,29.88,West,264,5.0,9.0,37,0.00,,,0.01,243,Wunderground v.1.15,2013-05-12 20:50:00,
2013-05-12 17:00:00,59.7,33.4,29.89,West,267,5.0,5.0,37,0.00,,,0.01,218,Wunderground v.1.15,2013-05-12 21:00:00,
2013-05-12 17:10:00,58.4,33.5,29.88,West,279,4.0,5.0,39,0.00,,,0.01,199,Wunderground v.1.15,2013-05-12 21:10:00,
2013-05-12 17:20:00,57.6,32.2,29.89,West,280,6.0,6.0,38,0.00,,,0.01,227,Wunderground v.1.15,2013-05-12 21:20:00,
2013-05-12 17:30:00,58.6,34.3,29.89,WNW,287,4.0,4.0,40,0.00,,,0.01,515,Wunderground v.1.15,2013-05-12 21:30:00,
2013-05-12 17:40:00,58.5,34.9,29.89,West,262,5.0,5.0,41,0.00,,,0.01,459,Wunderground v.1.15,2013-05-12 21:40:00,
2013-05-12 17:50:00,59.3,35.0,29.89,WSW,257,2.0,3.0,40,0.00,,,0.01,401,Wunderground v.1.15,2013-05-12 21:50:00,
2013-05-12 18:00:00,58.4,33.5,29.89,West,273,4.0,4.0,39,0.00,,,0.01,86,Wunderground v.1.15,2013-05-12 22:00:00,
2013-05-12 18:10:00,57.3,33.2,29.89,West,265,3.0,3.0,40,0.00,,,0.01,111,Wunderground v.1.15,2013-05-12 22:10:00,
2013-05-12 18:20:00,57.2,33.7,29.90,West,267,2.0,4.0,41,0.00,,,0.01,116,Wunderground v.1.15,2013-05-12 22:20:00,
2013-05-12 18:40:00,57.7,33.5,29.90,WSW,257,5.0,9.0,40,0.00,,,0.01,181,Wunderground v.1.15,2013-05-12 22:40:00,
2013-05-12 18:50:00,57.7,33.5,29.90,West,261,5.0,5.0,40,0.00,,,0.01,95,Wunderground v.1.15,2013-05-12 22:50:00,
2013-05-12 19:00:00,57.1,33.6,29.91,West,259,3.0,3.0,41,0.00,,,0.01,162,Wunderground v.1.15,2013-05-12 23:00:00,
2013-05-12 19:10:00,56.9,34.6,29.91,SW,235,2.0,2.0,43,0.00,,,0.01,132,Wunderground v.1.15,2013-05-12 23:10:00,
2013-05-12 19:20:00,56.2,33.4,29.92,West,273,2.0,7.0,42,0.00,,,0.01,49,Wunderground v.1.15,2013-05-12 23:20:00,
2013-05-12 19:30:00,56.0,32.0,29.92,West,273,4.0,4.0,40,0.00,,,0.01,39,Wunderground v.1.15,2013-05-12 23:30:00,
2013-05-12 19:40:00,55.9,32.5,29.92,West,259,2.0,4.0,41,0.00,,,0.01,32,Wunderground v.1.15,2013-05-12 23:40:00,
2013-05-12 19:50:00,55.4,31.5,29.92,WNW,283,1.0,1.0,40,0.00,,,0.01,14,Wunderground v.1.15,2013-05-12 23:50:00,
2013-05-12 20:00:00,54.6,31.3,29.93,WSW,255,1.0,3.0,41,0.00,,,0.01,11,Wunderground v.1.15,2013-05-13 00:00:00,
2013-05-12 20:10:00,54.5,30.0,29.93,West,263,3.0,3.0,39,0.00,,,0.01,5,Wunderground v.1.15,2013-05-13 00:10:00,
2013-05-12 20:20:00,54.4,29.9,29.94,WSW,252,2.0,5.0,39,0.00,,,0.01,0,Wunderground v.1.15,2013-05-13 00:20:00,
2013-05-12 20:30:00,54.1,30.3,29.94,West,263,2.0,2.0,40,0.00,,,0.01,0,Wunderground v.1.15,2013-05-13 00:30:00,
2013-05-12 20:40:00,53.6,31.0,29.95,SW,236,2.0,6.0,42,0.00,,,0.01,0,Wunderground v.1.15,2013-05-13 00:40:00,
2013-05-12 20:50:00,53.1,30.6,29.95,West,267,1.0,1.0,42,0.00,,,0.01,0,Wunderground v.1.15,2013-05-13 00:50:00,
2013-05-12 21:00:00,52.9,29.8,29.96,West,275,2.0,2.0,41,0.00,,,0.01,0,Wunderground v.1.15,2013-05-13 01:00:00,
2013-05-12 21:10:00,52.8,29.7,29.97,West,271,1.0,3.0,41,0.00,,,0.01,0,Wunderground v.1.15,2013-05-13 01:10:00,
2013-05-12 21:20:00,52.5,29.5,29.97,West,263,1.0,1.0,41,0.00,,,0.01,0,Wunderground v.1.15,2013-05-13 01:20:00,
2013-05-12 21:30:00,52.3,29.9,29.98,West,270,1.0,1.0,42,0.00,,,0.01,0,Wunderground v.1.15,2013-05-13 01:30:00,
2013-05-12 21:40:00,52.2,29.8,29.98,West,267,1.0,2.0,42,0.00,,,0.01,0,Wunderground v.1.15,2013-05-13 01:40:00,
2013-05-12 21:50:00,52.0,30.2,29.98,West,276,1.0,1.0,43,0.00,,,0.01,0,Wunderground v.1.15,2013-05-13 01:50:00,
2013-05-12 22:00:00,51.7,30.5,30.00,WSW,252,1.0,1.0,44,0.00,,,0.01,0,Wunderground v.1.15,2013-05-13 02:00:00,
2013-05-12 22:10:00,51.0,31.5,30.00,WSW,252,0.0,0.0,47,0.00,,,0.01,0,Wunderground v.1.15,2013-05-13 02:10:00,
2013-05-12 22:20:00,50.0,31.1,30.00,WSW,252,0.0,0.0,48,0.00,,,0.01,0,Wunderground v.1.15,2013-05-13 02:20:00,
2013-05-12 22:30:00,49.4,32.0,30.01,WSW,252,0.0,0.0,51,0.00,,,0.01,0,Wunderground v.1.15,2013-05-13 02:30:00,
2013-05-12 22:40:00,47.6,32.2,30.00,WSW,252,0.0,0.0,55,0.00,,,0.01,0,Wunderground v.1.15,2013-05-13 02:40:00,
2013-05-12 22:50:00,47.7,31.9,30.01,WSW,252,0.0,0.0,54,0.00,,,0.01,0,Wunderground v.1.15,2013-05-13 02:50:00,
2013-05-12 23:00:00,47.0,33.0,30.00,WSW,252,0.0,0.0,58,0.00,,,0.01,0,Wunderground v.1.15,2013-05-13 03:00:00,
2013-05-12 23:10:00,46.5,32.9,30.01,WSW,252,0.0,0.0,59,0.00,,,0.01,0,Wunderground v.1.15,2013-05-13 03:10:00,
2013-05-12 23:20:00,46.6,32.2,30.01,WSW,252,0.0,0.0,57,0.00,,,0.01,0,Wunderground v.1.15,2013-05-13 03:20:00,
2013-05-12 23:30:00,46.7,32.3,30.01,WSW,252,0.0,0.0,57,0.00,,,0.01,0,Wunderground v.1.15,2013-05-13 03:30:00,
2013-05-12 23:40:00,46.6,32.6,30.01,WSW,252,0.0,0.0,58,0.00,,,0.01,0,Wunderground v.1.15,2013-05-13 03:40:00,
2013-05-12 23:50:00,46.7,33.1,30.00,WSW,252,0.0,0.0,59,0.00,,,0.01,0,Wunderground v.1.15,2013-05-13 03:50:00,